Torna al catalogo

STARLINK-3935

AttivoComunicazioniVLEO
NORAD 52549·PAYLOAD·🇺🇸 United States

Lanciato May 13, 2022 da Vandenberg Space Force Base

Loading…

Prossimi Passaggi (prossime 24 ore)

TLE

AggiornatoSource: CelesTrak SupGP

Epoca: Sep 15, 2026, 02:39 UTC

1 52549C 22051S   26258.11090278  .00048984  00000+0  14019-2 0  2583
2 52549  53.1580 347.0457 0001144  91.9504 138.7021 15.35365663    13

Traccia STARLINK-3935 in tempo reale con AllMySat

Download on the App Store